#timestamp,LO_Frequency,Hit 
1501722015.6,286047003.8,N
1501722035.4,286047004.7,N
1501722055.2,286047004.0,N
1501722075.1,286047000.5,N
1501722076.0,286047000.5,N
1501722095.8,286047002.8,N
1501722115.6,286047001.7,N
1501722135.5,286047001.0,N
1501722155.3,286047000.4,N
1501722175.1,286046997.0,N
1501722195.9,286046999.4,N
1501722215.7,286046999.1,N
1501722235.5,286046999.0,N
1501722255.4,286046999.3,N
1501722275.2,286047000.9,N
1501722295.0,286047002.7,N
1501722295.9,286047002.7,N
1501722315.8,286047005.8,N
1501722335.6,286047006.3,N
1501722355.4,286047008.3,P
1501722375.3,286047007.6,N
1501722395.1,286047008.6,P
1501722415.8,286046999.7,P
1501722435.7,286047000.4,N
1501722455.7,286046999.9,N
1501722475.5,286047000.8,N
1501722495.3,286047000.1,N
1501722515.2,286047000.5,N
1501722535.9,286046999.7,N
1501722555.7,286047000.8,N
1501722575.6,286047000.4,N
1501722595.4,286046998.1,N
1501722615.2,286047001.2,N
1501722635.1,286047000.3,N
1501722636.0,286047000.3,N
1501722655.8,286047001.5,N
1501722675.6,286047007.6,P
1501722695.5,286047004.6,N
1501722715.3,286047007.3,N
1501722735.1,286047010.2,P
1501722755.9,286047001.3,N
1501722775.7,286047001.7,N
1501722795.5,286047001.3,N
1501722815.4,286047002.9,N
1501722835.2,286047005.8,N
1501722855.0,286047007.6,N
1501722855.9,286047007.6,N
1501722875.8,286047003.1,N
1501722895.6,286047002.0,N
1501722915.4,286047002.2,N
1501722935.2,286047002.7,N
1501722955.1,286047001.7,N
1501722956.0,286047001.7,N
1501722975.8,286047002.3,N
1501722995.6,286047000.5,N
1501723015.5,286047002.3,N
1501723035.3,286047002.2,N
1501723055.1,286047001.4,N
1501723075.9,286047002.0,N
1501723095.7,286047004.3,N
1501723115.5,286047004.7,N
1501723135.4,286047006.1,N
1501723155.2,286047009.2,P
1501723175.0,286047003.4,N
1501723175.9,286047003.4,N
1501723195.8,286047005.0,N
1501723215.6,286047007.6,P
1501723235.4,286047004.4,P
1501723255.3,286047001.8,N
1501723275.1,286047000.4,N
1501723295.8,286046997.0,N
1501723315.7,286046996.9,N
1501723335.5,286046997.0,N
1501723355.3,286046997.7,N
1501723375.2,286046996.9,N
1501723395.9,286046999.6,N
1501723415.7,286047001.1,N
1501723435.6,286047002.8,N
1501723455.4,286047000.9,N
1501723475.2,286046999.7,N
1501723495.1,286047000.6,N
1501723496.0,286047000.6,N
1501723515.8,286046998.3,N
1501723535.6,286047001.1,N
1501723555.5,286046998.9,N
1501723575.3,286046998.2,N
1501723595.1,286046999.5,N
1501723615.3,286046997.3,N
1501723635.2,286046995.0,N
1501723655.0,286046999.6,N
1501723655.9,286046999.6,N
1501723675.7,286046998.0,N
1501723695.6,286047000.6,N
1501723715.4,286046998.6,N
1501723735.2,286046997.1,N
1501723755.1,286046999.0,N
1501723756.0,286046999.0,N
1501723775.8,286047000.7,N
1501723795.6,286046998.2,N
1501723815.5,286047000.2,N
1501723835.3,286046999.7,N
1501723855.1,286046999.4,N
1501723875.9,286046998.5,N
1501723895.7,286047001.1,N
1501723915.5,286046996.6,N
1501723935.3,286046999.1,N
1501723955.2,286047000.1,N
1501723975.0,286047001.3,N
1501723975.9,286047001.3,N
1501723995.7,286047001.3,N
1501724015.6,286047002.4,N
1501724035.4,286046999.9,N
1501724055.2,286047000.9,N
1501724075.1,286047000.0,N
1501724076.0,286047000.0,N
1501724095.8,286047001.0,N
1501724115.6,286046999.6,N
1501724135.5,286046996.8,N
1501724155.3,286046995.5,N
1501724175.1,286046995.4,N
1501724195.9,286046997.4,N
1501724215.7,286047000.9,N
1501724235.5,286047001.0,N
1501724255.4,286047000.6,N
1501724275.2,286046998.5,N
1501724295.0,286047000.6,N
1501724295.9,286047000.6,N
1501724315.8,286047000.9,N
1501724335.6,286046998.2,N
1501724355.4,286046998.3,N
1501724375.2,286047000.0,N
1501724395.1,286047004.2,N
1501724396.0,286047004.2,N
1501724415.8,286047005.8,N
1501724435.6,286047004.7,N
1501724455.5,286047007.2,N
1501724475.3,286047005.6,N
1501724495.1,286047002.0,N
1501724515.9,286047001.5,N
1501724535.7,286047001.9,N
1501724555.5,286047002.7,N
1501724575.4,286046998.1,N
1501724595.2,286046998.9,N
1501724615.0,286046998.4,N
1501724615.9,286046998.4,N
1501724635.8,286046998.8,N
1501724655.6,286047000.4,N
1501724675.4,286047001.9,N
1501724695.3,286047001.3,N
1501724715.1,286047001.6,N
1501724716.0,286047001.6,N
1501724735.8,286047001.8,N
1501724755.7,286047003.2,N
1501724775.5,286047004.8,N
1501724795.3,286047006.8,N
1501724815.2,286047009.0,P
1501724835.9,286047006.1,N
1501724855.7,286047008.4,N
1501724875.6,286047009.2,P
1501724895.4,286047000.4,N
1501724915.2,286047000.4,N
1501724935.1,286047000.8,N
1501724936.0,286047000.8,N
1501724955.8,286046996.7,N
1501724975.6,286046995.9,N
1501724995.4,286046996.1,N
1501725015.3,286046995.1,N
1501725035.1,286046998.6,N
1501725055.8,286046997.4,N
1501725075.7,286046997.1,N
1501725095.5,286046994.0,N
1501725115.3,286046993.6,N
1501725135.2,286046995.1,N
1501725155.9,286046995.8,N
1501725175.7,286046995.5,N
1501725195.6,286046997.8,N
1501725215.4,286046997.7,N
1501725235.2,286046996.8,N
1501725255.1,286046998.5,N
1501725256.0,286046998.5,N
1501725275.8,286046999.5,N
1501725295.6,286046997.2,N
1501725315.5,286046998.2,N
1501725335.3,286047000.7,N
1501725355.1,286046998.2,N
1501725375.7,286046998.3,N
1501725395.5,286046999.6,N
1501725415.3,286046998.6,N
1501725435.2,286046996.7,N
1501725455.9,286047000.9,N
1501725475.7,286047000.7,N
1501725495.6,286046998.1,N
1501725515.4,286047002.0,N
1501725535.2,286046999.9,N
1501725555.0,286047000.8,N
1501725556.0,286047000.8,N
1501725575.8,286047001.1,N
1501725595.6,286046998.4,N
